User: anonymous   Login
Location: Nianha
(10.8000°N, 4.6333°W)
Time: 00:23:02
(UTC+00:00)
Language:

PAYLOAD A - Orbit

View from above orbital plane
View from above orbital plane
View from above satellite
View from above satellite

Ground track
Ground track

The orbit data is extracted from the following two-line orbital elements,

1 27840U 03031A   20047.52500957 -.00000015  00000-0  86645-5 0  9995
2 27840  98.3061  22.9087 0099347  65.6885 295.4640 14.38933200873436
Epoch (UTC): 16 February 2020 12:36:00
Eccentricity: 0.0099347
inclination: 98.3061°
perigee height: 691 km
apogee height: 833 km
right ascension of ascending node: 22.9087°
argument of perigee: 65.6885°
revolutions per day: 14.38933200
mean anomaly at epoch: 295.4640°
orbit number at epoch: 87343

The dashed part of the orbit path shows where the satellite is in the earth's shadow,  

DLR